DW7322 Weather Reports


Display with metric or nautical units.
time (UTC)temp
F
wind
direction
speed
MPH
gust
MPH
rain 1hr
in
rain 24hr
in
rain mn
in
humidity
%
barometer
mb
20260502211543 56 357 0.0 3.0 0.00 0.00 0.00 44 1018.2
20260502210104 55 286 0.0 3.0 0.00 0.00 0.00 46 1018.4
20260502204541 55 302 0.0 4.0 0.00 0.00 0.00 43 1018.6
20260502203100 56 308 0.0 3.0 0.00 0.00 0.00 43 1018.7
20260502203008 56 309 0.0 3.0 0.00 0.00 0.00 42 1018.8
20260502201526 56 275 0.0 4.0 0.00 0.00 0.00 43 1018.8
20260502200101 57 294 0.0 4.0 0.00 0.00 0.00 40 1019.1
20260502194544 56 302 0.0 3.0 0.00 0.00 0.00 45 1019.2
20260502193101 56 322 0.0 5.0 0.00 0.00 0.00 42 1019.4
20260502191523 56 34 0.0 4.0 0.00 0.00 0.00 42 1019.8
20260502190012 54 276 1.0 3.0 0.00 0.00 0.00 46 1019.9
20260502184525 52 335 0.0 3.0 0.00 0.00 0.00 49 1020.2
20260502183044 51 284 1.0 3.0 0.00 0.00 0.00 50 1020.4
20260502181511 54 282 0.0 3.0 0.00 0.00 0.00 48 1020.3
20260502163017 51 302 0.0 3.0 0.00 0.00 0.00 53 1021.1
20260502161530 52 308 1.0 4.0 0.00 0.00 0.00 52 1021.4
20260502151518 50 255 0.0 1.0 0.00 0.00 0.00 57 1021.5
20260502130117 39 121 0.0 0.0 0.00 0.00 0.00 86 1021.4
20260502123027 35 120 0.0 0.0 0.00 0.00 0.00 91 1021.5
20260502121601 34 121 0.0 0.0 0.00 0.00 0.00 93 1021.4
20260502120105 33 121 0.0 1.0 0.00 0.00 0.00 93 1021.3
20260502114559 32 120 0.0 1.0 0.00 0.00 0.00 93 1021.1
20260502113021 32 121 0.0 1.0 0.00 0.00 0.00 93 1020.9
20260502111541 31 122 0.0 0.0 0.00 0.00 0.00 93 1020.8
20260502110105 31 121 0.0 0.0 0.00 0.00 0.00 94 1020.7
20260502104553 31 122 0.0 0.0 0.00 0.00 0.00 94 1020.7
20260502103017 31 122 0.0 0.0 0.00 0.00 0.00 94 1020.6
20260502101603 31 122 0.0 0.0 0.00 0.00 0.00 94 1020.7
20260502100116 31 121 0.0 0.0 0.00 0.00 0.00 94 1020.6
20260502090108 32 120 0.0 0.0 0.00 0.00 0.00 94 1020.6
20260502070109 32 122 0.0 0.0 0.00 0.00 0.00 93 1020.8
20260502064524 32 122 0.0 0.0 0.00 0.00 0.00 93 1020.8
20260502063029 31 120 0.0 0.0 0.00 0.00 0.00 93 1020.9
20260502061549 31 121 0.0 0.0 0.00 0.00 0.00 93 1021.0
20260502060113 31 120 0.0 0.0 0.00 0.00 0.00 93 1021.0
20260502054507 31 122 0.0 0.0 0.00 0.00 0.00 92 1021.0
20260502053029 31 122 0.0 0.0 0.00 0.00 0.00 91 1021.1
20260502051554 32 122 0.0 0.0 0.00 0.00 0.00 91 1021.0
20260502050104 32 122 0.0 0.0 0.00 0.02 0.00 91 1021.0
20260502044546 32 121 0.0 0.0 0.00 0.02 0.00 90 1021.1
20260502043003 32 120 0.0 0.0 0.00 0.02 0.00 89 1021.1
20260502041528 33 120 0.0 0.0 0.00 0.02 0.00 88 1020.9
20260502040012 34 122 0.0 0.0 0.00 0.11 0.00 87 1020.9
20260502034531 35 122 0.0 1.0 0.00 0.11 0.00 87 1020.8
20260502033053 35 120 0.0 0.0 0.00 0.11 0.00 86 1020.6
20260502031507 36 120 0.0 1.0 0.00 0.11 0.00 86 1020.5
20260502030004 36 35 0.0 1.0 0.00 0.11 0.00 85 1020.5
20260502024523 37 35 0.0 1.0 0.00 0.11 0.00 84 1020.4
20260502023038 37 51 0.0 1.0 0.00 0.11 0.00 83 1020.3
20260502021507 38 45 0.0 4.0 0.00 0.11 0.00 81 1020.0
20260502020121 39 83 0.0 3.0 0.00 0.15 0.00 80 1019.7
20260502014524 40 65 0.0 3.0 0.00 0.15 0.00 80 1019.5
20260502013050 41 48 0.0 1.0 0.00 0.15 0.00 79 1019.3
20260502011514 42 72 0.0 5.0 0.00 0.15 0.00 78 1019.1
20260502010122 43 49 0.0 1.0 0.00 0.18 0.00 78 1018.7
20260502004533 44 48 0.0 2.0 0.00 0.18 0.00 77 1018.6
20260502003042 45 350 0.0 2.0 0.00 0.18 0.00 74 1018.5
20260502001508 46 106 0.0 0.0 0.00 0.18 0.00 73 1018.5
20260502000008 46 325 0.0 1.0 0.00 0.20 0.00 74 1018.4
20260501234531 46 82 0.0 1.0 0.00 0.20 0.00 74 1018.4
20260501233054 46 123 0.0 3.0 0.00 0.20 0.00 73 1018.2
20260501231533 46 117 0.0 3.0 0.00 0.20 0.00 72 1018.2
20260501230045 47 10 0.0 3.0 0.00 0.24 0.00 69 1018.4
20260501224545 48 14 0.0 4.0 0.00 0.24 0.00 63 1018.3
20260501223012 49 317 0.0 2.0 0.00 0.24 0.00 62 1018.4
20260501221530 48 323 0.0 2.0 0.00 0.24 0.00 63 1018.3
20260501220057 49 342 0.0 1.0 0.00 0.27 0.00 61 1018.4
20260501214548 50 319 0.0 1.0 0.00 0.27 0.00 57 1018.3
20260501213018 50 302 0.0 1.0 0.00 0.27 0.00 58 1018.3